TimePDT,TemperatureF,Dew PointF,Humidity,Sea Level PressureIn,VisibilityMPH,Wind Direction,Wind SpeedMPH,Gust SpeedMPH,PrecipitationIn,Events,Conditions,WindDirDegrees,DateUTC
12:52 AM,55.9,39.9,55,29.88,-9999.0,SW,13.8,18.4,N/A,,Unknown,220,2013-09-23 07:52:00
1:52 AM,53.1,39.0,59,29.90,-9999.0,SSW,12.7,-,N/A,,Unknown,200,2013-09-23 08:52:00
2:52 AM,52.0,39.0,61,29.91,-9999.0,South,9.2,-,N/A,,Unknown,190,2013-09-23 09:52:00
3:52 AM,52.0,37.9,59,29.92,-9999.0,SSW,9.2,-,N/A,,Unknown,210,2013-09-23 10:52:00
4:52 AM,50.0,37.9,63,29.94,-9999.0,South,10.4,-,N/A,,Unknown,190,2013-09-23 11:52:00
5:52 AM,45.0,37.0,74,29.97,-9999.0,South,6.9,-,N/A,,Unknown,180,2013-09-23 12:52:00
7:52 AM,52.0,39.9,63,29.99,-9999.0,South,5.8,-,N/A,,Unknown,170,2013-09-23 14:52:00
8:52 AM,60.1,37.9,44,29.99,-9999.0,SW,16.1,20.7,N/A,,Unknown,220,2013-09-23 15:52:00
9:52 AM,62.1,37.9,41,29.97,-9999.0,SSW,18.4,-,N/A,,Unknown,210,2013-09-23 16:52:00
10:52 AM,64.0,39.0,40,29.98,-9999.0,SW,16.1,24.2,N/A,,Unknown,230,2013-09-23 17:52:00
11:52 AM,68.0,37.0,32,29.96,-9999.0,SSW,15.0,21.9,N/A,,Unknown,200,2013-09-23 18:52:00
12:52 PM,68.0,36.0,31,29.95,-9999.0,SW,16.1,24.2,N/A,,Unknown,230,2013-09-23 19:52:00
1:52 PM,69.1,34.0,27,29.92,-9999.0,South,10.4,-,N/A,,Unknown,180,2013-09-23 20:52:00
2:52 PM,69.1,32.0,25,29.91,-9999.0,South,10.4,24.2,N/A,,Unknown,190,2013-09-23 21:52:00
3:52 PM,72.0,32.0,23,29.89,-9999.0,SSW,15.0,23.0,N/A,,Unknown,210,2013-09-23 22:52:00
4:52 PM,73.0,32.0,22,29.88,-9999.0,WSW,13.8,21.9,N/A,,Unknown,240,2013-09-23 23:52:00
5:52 PM,72.0,30.9,22,29.88,-9999.0,SW,13.8,19.6,N/A,,Unknown,220,2013-09-24 00:52:00
6:52 PM,66.0,32.0,28,29.88,-9999.0,SSW,4.6,-,N/A,,Unknown,200,2013-09-24 01:52:00
7:52 PM,61.0,-9999,N/A,29.89,-9999.0,South,8.1,-,N/A,,Unknown,170,2013-09-24 02:52:00
8:52 PM,57.0,-9999,N/A,29.89,-9999.0,SW,4.6,-,N/A,,Unknown,230,2013-09-24 03:52:00
9:52 PM,57.9,-9999,N/A,29.90,-9999.0,Calm,Calm,-,N/A,,Unknown,0,2013-09-24 04:52:00
10:52 PM,55.0,-9999,N/A,29.89,-9999.0,Calm,Calm,-,N/A,,Unknown,0,2013-09-24 05:52:00
11:52 PM,51.1,-9999,N/A,29.88,-9999.0,SSE,8.1,-,N/A,,Unknown,150,2013-09-24 06:52:00